Temp
14 14 14 14 13 13 13 13 13 13 13 12 12 12 12 12 12 12 12 11 11 11 11 11 11 10 11 11 10 10 10 10 10 9 9 8 8 9 8 9 9 9
14 14 14 14 14 13 13 13 13 13 13 13 12 12 12 12 12 12 12 12 11 11 11 11 10 10 10 10 10 10 10 10 9 9 9 8 8 8 8 8 9 9
14 14 14 14 14 13 13 13 13 13 13 13 13 12 12 12 12 12 12 12 12 11 11 11 10 10 10 10 10 9 9 9 9 9 9 8 8 7 7 8 8 8
14 14 14 14 14 13 13 13 13 13 13 13 13 13 12 12 12 12 12 12 11 11 11 11 10 10 10 10 10 10 9 9 9 9 9 8 8 7 7 7 7 8
14 14 14 14 14 14 13 13 13 13 13 13 13 13 13 12 12 12 12 12 11 11 11 10 10 10 10 10 10 10 9 9 9 9 9 9 8 8 7 7 7 7
14 14 14 14 14 14 13 13 13 13 13 13 13 13 13 12 12 12 12 12 11 11 11 11 10 10 10 10 10 9 9 9 9 9 9 9 8 8 7 7 7 7
14 14 14 14 14 14 14 14 13 13 13 13 13 13 13 12 12 12 12 12 11 11 11 11 10 10 10 10 9 9 9 9 8 8 8 8 8 8 7 7 7 7
14 14 14 14 14 14 14 14 13 13 13 13 13 13 13 13 12 12 12 12 12 11 11 11 11 10 10 10 9 9 9 8 8 8 8 8 8 8 8 7 7 7
14 14 14 14 14 14 14 14 14 13 13 13 13 13 13 13 12 12 12 12 12 12 11 11 11 10 10 10 9 9 9 8 8 8 8 8 8 8 8 7 7 7
14 14 14 14 14 14 14 14 14 13 13 13 13 13 13 13 12 12 12 12 12 12 11 11 11 11 10 10 10 9 9 8 8 8 8 8 8 8 8 7 7 7
14 14 14 14 14 14 14 14 13 13 13 13 13 13 13 13 12 12 12 12 12 12 11 11 11 11 10 10 10 9 9 8 8 8 8 8 8 8 7 7 7 7
14 14 14 14 14 14 14 14 13 13 13 13 13 13 13 12 12 12 12 12 12 11 11 11 11 11 10 10 10 9 9 9 8 8 8 8 8 8 7 7 7 7
14 14 14 14 14 14 14 13 13 13 13 13 13 13 13 12 12 12 12 12 12 11 11 11 11 10 10 10 10 10 9 9 8 8 8 8 7 7 7 7 7 6
14 14 14 14 14 14 13 13 13 13 13 13 13 13 13 13 12 12 12 12 12 12 11 11 11 10 10 10 10 9 9 8 8 8 8 7 7 7 7 7 6 6
15 14 14 14 14 14 14 13 13 13 13 13 13 13 13 13 13 13 13 13 12 12 12 12 11 10 10 9 9 9 8 8 8 8 8 7 7 7 7 7 6 6
15 15 14 14 14 14 14 14 13 13 13 13 13 13 13 13 13 13 13 13 13 12 12 12 12 11 10 9 8 8 8 8 8 8 7 7 7 7 7 6 6 6
15 15 15 14 14 14 14 14 14 14 14 13 13 13 13 13 13 13 13 13 13 13 13 13 12 11 10 10 9 8 8 8 8 7 7 7 7 6 6 6 6 6
16 15 15 15 14 14 14 14 14 14 14 14 13 13 13 13 13 13 13 13 14 14 13 13 12 11 11 10 9 8 8 8 7 7 6 6 6 6 6 6 6 5
16 15 15 15 14 14 14 14 14 14 14 14 13 13 13 13 13 13 13 14 14 13 13 13 12 11 11 10 9 9 8 8 7 6 6 6 6 6 6 6 5 5
16 16 15 15 15 15 14 14 14 14 14 14 13 13 13 13 14 14 13 13 13 13 13 13 12 11 11 10 9 9 8 7 7 7 6 6 6 6 5 5 5 5
16 16 15 15 15 15 14 14 14 14 14 14 14 14 14 14 13 13 13 13 13 13 12 12 11 11 11 10 9 9 8 8 7 7 6 6 6 6 6 5 5 5
16 16 16 16 15 15 14 14 14 14 14 14 14 14 14 13 13 13 13 13 13 13 12 11 11 11 10 10 9 8 8 8 7 7 7 6 6 6 6 5 5 5
16 16 16 15 15 14 14 14 14 14 14 14 14 13 13 13 13 13 13 13 13 12 12 11 11 10 10 9 9 9 8 8 8 7 7 6 6 6 5 5 5 5
16 16 15 14 14 14 14 14 14 14 14 13 13 13 13 13 13 13 12 12 13 12 12 11 11 10 10 10 10 9 9 8 7 7 6 6 6 6 5 5 5 5
15 15 14 14 14 14 14 14 14 14 13 13 13 13 13 13 13 12 12 12 12 12 11 11 11 10 10 10 10 9 8 8 7 7 6 6 6 6 5 5 5 5
15 14 14 14 14 14 14 14 14 13 13 13 13 13 13 12 12 12 12 12 12 12 11 11 11 10 10 10 9 9 8 8 7 7 6 6 6 5 5 5 5 5
Height
3177 3178 3180 3181 3182 3183 3184 3185 3186 3187 3188 3188 3189 3190 3190 3191 3192 3192 3193 3194 3194 3194 3194 3195 3195 3195 3195 3194 3194 3194 3194 3193 3193 3193 3192 3192 3192 3191 3191 3190 3188 3187
3175 3176 3178 3179 3180 3181 3182 3184 3185 3185 3186 3187 3188 3188 3188 3189 3190 3191 3191 3192 3192 3193 3193 3194 3194 3194 3193 3193 3193 3192 3192 3192 3192 3191 3191 3191 3191 3190 3189 3188 3187 3186
3173 3174 3176 3177 3178 3179 3180 3182 3183 3184 3185 3185 3186 3186 3187 3188 3189 3189 3189 3190 3191 3192 3192 3192 3192 3192 3191 3191 3191 3191 3191 3190 3190 3190 3190 3190 3190 3189 3188 3187 3186 3185
3171 3172 3174 3175 3176 3177 3179 3180 3181 3182 3183 3183 3184 3184 3185 3186 3187 3187 3187 3188 3189 3190 3190 3190 3190 3189 3189 3189 3189 3189 3189 3189 3189 3188 3188 3188 3188 3188 3186 3185 3185 3184
3169 3170 3172 3173 3174 3176 3177 3178 3179 3180 3181 3182 3182 3182 3183 3184 3184 3185 3186 3186 3187 3188 3188 3188 3187 3187 3187 3187 3187 3187 3187 3187 3187 3187 3187 3187 3187 3186 3185 3184 3183 3183
3167 3168 3170 3171 3172 3173 3174 3176 3177 3178 3179 3180 3180 3180 3181 3182 3182 3183 3184 3185 3185 3185 3185 3185 3185 3185 3184 3184 3185 3185 3185 3185 3185 3185 3185 3185 3185 3185 3184 3182 3181 3181
3164 3166 3167 3169 3170 3171 3172 3174 3175 3175 3177 3177 3178 3178 3179 3179 3179 3180 3182 3182 3183 3183 3182 3182 3182 3182 3182 3182 3182 3182 3182 3182 3182 3183 3183 3183 3183 3183 3182 3180 3179 3179
3162 3164 3165 3166 3168 3169 3170 3171 3172 3173 3174 3175 3175 3176 3176 3177 3177 3178 3179 3179 3180 3180 3180 3180 3180 3180 3179 3179 3179 3179 3179 3179 3179 3180 3180 3180 3180 3180 3180 3179 3177 3177
3160 3162 3163 3164 3166 3167 3168 3169 3170 3171 3172 3172 3173 3173 3174 3175 3175 3176 3176 3177 3177 3177 3177 3177 3177 3177 3177 3177 3177 3176 3176 3176 3176 3176 3177 3178 3177 3177 3177 3176 3175 3175
3158 3160 3161 3162 3163 3164 3166 3167 3168 3169 3169 3170 3170 3170 3171 3172 3172 3173 3173 3173 3174 3174 3174 3174 3174 3174 3174 3174 3174 3173 3173 3173 3173 3173 3174 3175 3174 3174 3174 3174 3173 3172
3155 3157 3158 3160 3161 3162 3164 3165 3165 3166 3167 3168 3168 3168 3169 3169 3169 3170 3170 3170 3170 3171 3171 3171 3171 3172 3171 3171 3171 3171 3170 3170 3170 3170 3171 3171 3171 3171 3171 3171 3170 3169
3153 3154 3156 3157 3159 3160 3162 3163 3163 3163 3164 3165 3166 3167 3167 3167 3167 3167 3167 3167 3167 3167 3168 3167 3167 3168 3167 3167 3167 3167 3167 3167 3166 3167 3167 3167 3167 3167 3167 3167 3167 3166
3150 3152 3153 3155 3156 3158 3159 3161 3161 3161 3161 3162 3163 3164 3164 3165 3165 3165 3165 3165 3164 3164 3164 3164 3163 3163 3163 3163 3163 3163 3164 3164 3164 3163 3163 3163 3164 3164 3163 3164 3163 3163
3148 3150 3151 3153 3154 3156 3157 3158 3159 3159 3159 3160 3160 3161 3161 3162 3162 3162 3162 3162 3161 3161 3160 3160 3159 3159 3159 3159 3159 3159 3160 3161 3160 3160 3159 3159 3159 3160 3160 3160 3160 3160
3146 3147 3149 3150 3151 3153 3154 3156 3156 3157 3157 3157 3157 3158 3159 3159 3159 3159 3159 3158 3158 3157 3156 3155 3155 3154 3155 3155 3155 3155 3156 3157 3157 3156 3155 3155 3155 3156 3157 3156 3156 3156
3143 3145 3146 3147 3149 3150 3152 3153 3154 3154 3155 3155 3155 3155 3156 3156 3155 3155 3155 3155 3154 3154 3153 3151 3151 3151 3151 3151 3151 3152 3152 3152 3152 3152 3151 3151 3151 3152 3152 3152 3152 3152
3141 3142 3143 3144 3146 3148 3149 3151 3151 3152 3152 3152 3152 3153 3153 3153 3152 3151 3151 3150 3150 3150 3149 3147 3147 3149 3148 3147 3147 3147 3148 3147 3147 3148 3147 3147 3147 3148 3148 3148 3148 3147
3138 3139 3140 3142 3143 3145 3146 3148 3148 3149 3149 3150 3150 3150 3150 3150 3150 3148 3147 3146 3145 3145 3145 3144 3144 3145 3145 3144 3143 3143 3143 3143 3143 3143 3143 3143 3144 3145 3145 3144 3143 3142
3135 3136 3137 3139 3140 3142 3143 3145 3146 3147 3147 3147 3148 3148 3148 3147 3147 3146 3145 3143 3141 3140 3140 3140 3141 3141 3141 3141 3141 3140 3139 3139 3139 3139 3139 3139 3140 3141 3141 3141 3139 3139
3132 3133 3134 3136 3137 3139 3140 3142 3143 3144 3144 3145 3145 3145 3145 3145 3145 3144 3143 3142 3139 3137 3136 3136 3137 3137 3137 3137 3138 3137 3135 3135 3135 3135 3136 3136 3137 3137 3137 3137 3137 3137
3128 3130 3131 3133 3134 3136 3138 3139 3140 3141 3141 3141 3142 3142 3142 3142 3142 3141 3140 3139 3137 3134 3133 3132 3132 3133 3133 3133 3134 3133 3132 3132 3132 3132 3132 3133 3133 3133 3133 3133 3133 3134
3125 3126 3128 3130 3132 3133 3135 3136 3137 3137 3138 3139 3139 3139 3139 3139 3139 3138 3136 3135 3133 3131 3129 3128 3128 3129 3129 3130 3129 3128 3128 3128 3128 3128 3129 3129 3129 3128 3129 3129 3130 3131
3121 3123 3125 3127 3129 3131 3132 3133 3134 3134 3135 3136 3136 3136 3136 3136 3135 3135 3133 3131 3129 3128 3126 3125 3124 3124 3125 3126 3125 3124 3124 3124 3124 3124 3125 3125 3125 3125 3125 3125 3126 3128
3118 3120 3122 3125 3126 3128 3129 3130 3131 3131 3132 3133 3133 3133 3133 3132 3131 3130 3129 3127 3125 3124 3123 3121 3121 3121 3121 3121 3120 3119 3119 3120 3120 3120 3121 3122 3122 3122 3121 3122 3124 3126
3115 3117 3119 3121 3123 3124 3125 3127 3128 3128 3129 3130 3131 3130 3130 3129 3127 3126 3124 3123 3122 3121 3120 3118 3117 3117 3117 3117 3116 3115 3115 3116 3116 3116 3117 3118 3119 3118 3118 3120 3121 3123
3112 3115 3116 3118 3119 3121 3122 3123 3125 3125 3126 3127 3127 3127 3126 3125 3123 3122 3120 3120 3119 3118 3116 3115 3114 3114 3114 3113 3113 3112 3112 3112 3112 3112 3114 3115 3115 3115 3116 3118 3119 3120
Wind_Speed
21 21 21 21 21 20 19 18 16 15 14 14 13 13 14 15 15 13 12 14 14 13 12 11 10 10 12 14 16 17 18 18 19 21 21 20 20 20 20 21 20 18
21 22 22 22 21 21 20 18 17 15 15 14 14 15 16 16 16 16 15 15 16 16 14 13 13 13 13 14 16 18 19 19 19 20 20 19 19 20 19 20 19 17
22 22 22 22 21 21 21 19 18 17 16 15 15 16 17 16 17 18 18 17 18 18 16 16 17 16 16 16 17 18 19 20 21 21 20 18 20 21 21 21 21 20
23 22 22 22 22 22 21 20 19 18 17 16 17 18 18 18 19 20 21 20 20 19 19 20 20 20 20 21 21 20 20 21 22 22 21 20 21 23 23 23 22 21
23 23 23 22 22 23 23 22 20 18 18 18 19 20 19 20 21 22 22 22 22 22 22 22 23 23 24 25 25 23 22 22 22 22 21 21 23 24 24 23 22 21
23 24 23 23 23 23 23 22 21 20 19 19 20 22 21 22 23 23 22 23 24 24 25 26 26 26 27 27 27 26 25 24 23 23 23 22 23 26 26 25 22 21
24 24 24 23 23 23 23 22 22 22 21 21 23 23 23 24 24 24 24 25 26 27 28 29 29 29 30 30 30 28 28 26 24 24 24 24 25 27 28 26 23 22
23 24 24 24 23 23 22 22 22 22 22 23 25 25 24 25 26 26 26 27 28 29 30 31 32 32 33 33 33 32 31 29 27 26 26 27 28 28 28 28 25 22
23 24 24 24 23 22 22 22 22 22 23 24 26 26 26 26 26 27 28 28 29 31 32 33 34 35 36 36 35 35 34 32 30 29 29 29 30 30 29 29 26 22
23 23 24 24 23 22 21 21 22 23 23 24 25 26 26 26 26 27 28 29 30 31 32 34 35 36 38 38 38 37 36 34 32 32 30 30 31 31 29 29 27 22
24 23 23 23 22 22 20 21 22 23 23 23 24 25 25 26 27 27 28 30 31 31 32 34 35 37 38 40 40 40 38 35 34 34 32 31 32 32 31 30 28 23
24 24 23 23 22 21 20 20 22 23 23 23 23 23 24 25 27 27 28 30 32 32 32 34 36 37 38 41 42 42 40 38 37 35 34 33 33 33 33 31 30 25
23 23 22 22 22 21 20 20 21 23 24 24 23 23 24 25 26 27 29 30 32 33 33 35 36 38 39 40 42 43 42 39 39 38 36 35 34 34 35 34 31 26
21 21 22 22 22 21 21 21 22 23 24 25 24 25 26 25 26 28 29 31 32 33 33 35 37 38 39 40 41 43 43 40 40 40 38 37 36 34 35 35 32 26
21 21 22 22 22 22 22 22 23 24 25 25 26 26 26 26 27 28 29 31 33 34 35 38 39 39 39 39 39 41 41 40 41 41 39 38 38 36 35 36 33 26
21 22 22 22 23 22 22 22 23 24 25 25 26 27 26 26 28 29 30 32 34 35 37 40 40 39 40 39 38 38 39 39 40 40 39 40 39 37 36 36 33 27
22 22 23 23 23 23 22 22 23 24 25 25 26 26 25 26 28 30 32 34 35 35 37 40 40 38 37 36 36 36 37 38 39 39 39 41 40 37 36 35 32 30
23 23 24 24 24 23 23 23 23 24 24 24 24 24 25 26 28 31 33 34 35 35 37 38 37 33 31 31 32 35 36 36 37 37 39 41 39 37 35 33 32 31
24 24 25 25 25 24 23 23 23 23 23 23 23 24 26 27 29 29 30 33 35 37 38 37 34 30 28 28 30 34 34 34 35 37 38 38 36 35 34 31 29 27
26 26 26 26 24 23 22 22 22 22 22 23 24 26 27 26 26 26 27 30 34 36 37 36 32 29 27 26 28 32 34 33 34 36 35 34 33 34 32 27 26 24
27 27 26 25 23 21 22 22 22 23 23 25 25 25 24 24 23 24 26 29 32 34 35 34 31 28 26 24 26 30 32 31 31 31 31 31 30 30 29 25 23 24
28 28 26 23 22 22 23 23 23 24 25 25 24 23 23 23 23 24 27 29 31 32 33 32 30 27 24 22 23 27 29 29 29 29 29 30 29 28 27 24 23 24
30 29 26 24 23 24 24 24 24 25 24 23 23 22 23 24 23 25 27 28 30 31 31 30 28 26 24 22 22 26 29 30 30 30 30 30 29 28 26 23 22 23
31 29 26 25 25 24 24 25 25 25 24 23 22 22 22 23 24 25 26 26 28 28 28 28 27 25 24 23 23 27 28 29 30 30 30 29 27 25 24 22 22 21
31 29 27 26 25 25 26 26 25 24 23 22 22 22 23 24 25 25 25 25 26 26 26 27 26 24 23 22 24 26 26 27 30 31 30 28 24 21 20 20 20 19
31 30 29 28 26 26 26 25 24 23 22 22 21 23 24 24 24 25 25 25 25 25 25 24 23 22 22 22 23 24 24 25 27 29 29 25 21 19 18 18 18 18
Wind_Direction
224 222 221 222 223 226 226 227 231 233 232 234 235 237 239 240 246 256 258 256 261 268 274 284 295 304 313 320 323 326 331 338 349 355 349 336 325 323 324 323 317 312
222 220 220 221 223 225 227 228 232 235 237 239 240 240 242 244 250 259 262 257 258 264 271 278 284 290 295 306 315 317 320 329 339 348 352 343 329 323 320 318 316 315
222 220 220 222 225 227 229 231 234 237 240 244 246 246 248 251 254 259 265 265 264 268 273 276 280 282 285 295 308 314 318 323 329 337 345 343 334 325 318 313 312 312
222 222 223 224 227 229 232 235 237 240 243 248 251 253 254 256 258 259 264 269 272 275 277 277 279 280 283 292 302 309 314 317 319 327 335 339 336 330 321 313 307 307
223 224 226 227 229 232 234 239 244 246 249 253 255 259 261 261 262 264 267 271 275 278 278 277 279 280 283 289 295 300 305 310 312 317 325 330 333 333 328 316 306 305
224 225 228 230 232 235 238 244 249 252 255 258 259 262 265 266 269 272 273 275 276 278 279 280 282 283 284 287 291 294 298 303 304 307 313 318 323 331 332 322 307 301
226 227 230 233 235 239 243 247 251 255 260 261 262 266 268 270 274 277 278 277 277 278 281 283 284 284 284 286 289 290 294 298 298 299 304 307 311 322 330 327 312 299
227 229 232 236 238 242 247 250 253 257 261 263 265 269 271 273 276 279 281 281 281 282 283 284 285 285 285 286 287 288 291 293 292 293 299 302 305 314 323 327 319 302
226 228 232 236 240 244 248 252 255 257 260 263 266 270 274 276 279 282 284 285 285 285 285 285 285 285 286 287 286 286 288 290 289 289 296 301 304 308 317 324 322 307
227 228 231 235 240 245 249 253 256 257 259 262 266 271 277 280 283 285 287 287 287 288 288 288 287 286 286 286 286 286 286 287 286 286 292 299 302 303 309 318 320 308
229 230 231 234 239 245 250 253 256 258 259 261 265 273 278 281 284 287 289 289 289 291 291 290 289 287 286 285 285 285 286 285 284 285 289 295 299 300 303 311 316 306
232 233 234 236 239 244 248 251 254 257 260 261 265 271 275 279 282 286 289 290 291 291 291 290 289 287 286 285 284 284 284 284 284 286 288 292 295 298 300 305 311 304
233 235 237 238 240 243 246 247 250 256 262 266 268 270 272 276 281 284 286 288 290 290 289 288 287 285 284 284 284 283 282 283 285 286 288 289 291 295 298 302 306 300
232 234 237 239 240 241 243 245 249 254 261 267 270 272 276 280 282 282 283 285 287 287 286 285 284 283 282 282 283 282 282 284 286 286 286 287 287 291 296 298 301 296
231 233 235 239 240 241 244 247 250 254 259 265 271 276 282 284 284 285 286 286 287 286 285 284 283 282 281 280 280 281 283 284 284 283 284 284 285 289 292 295 297 291
231 234 235 239 242 243 246 248 251 256 261 267 274 280 285 286 287 289 289 288 288 287 286 286 285 283 282 281 282 282 282 283 281 280 281 282 283 286 291 293 294 285
230 233 235 239 242 245 247 248 252 259 265 270 275 280 285 287 287 288 289 290 291 291 289 288 289 288 287 288 288 286 282 280 279 278 279 280 281 286 290 290 289 285
228 231 234 237 241 244 247 251 256 262 268 272 274 278 281 283 284 286 288 291 294 295 293 292 293 293 290 287 286 284 281 277 277 276 276 278 281 286 288 286 288 287
227 230 232 236 240 243 247 253 259 263 267 269 271 273 276 279 282 285 288 292 295 296 296 295 295 295 290 285 282 281 279 277 277 274 273 277 281 283 282 284 287 282
227 229 232 235 239 245 250 255 259 262 263 265 268 271 274 278 281 285 290 294 295 295 295 294 294 293 292 287 280 277 276 276 276 274 274 279 280 278 278 280 279 268
228 230 232 236 241 247 252 255 257 258 260 264 267 270 273 277 282 289 295 297 297 295 293 292 292 293 293 288 277 273 274 276 277 279 279 279 277 274 275 275 268 257
230 231 234 237 242 248 252 253 255 257 261 263 263 266 272 277 283 292 297 298 297 295 293 291 291 292 292 285 276 274 276 277 278 279 277 275 273 272 274 272 261 249
231 233 235 239 243 247 251 252 255 258 259 257 257 264 274 279 285 294 299 298 296 294 292 290 290 291 291 287 278 273 273 274 275 274 272 273 274 274 274 269 255 246
231 233 235 239 242 245 248 253 256 257 255 255 261 270 278 286 293 298 299 297 295 292 290 289 290 291 294 294 288 279 273 269 268 268 267 270 274 274 270 261 252 249
231 233 234 236 237 241 248 253 253 252 253 261 271 279 286 293 298 298 298 296 294 291 288 289 291 292 294 294 290 285 280 273 268 265 265 269 273 269 261 255 253 254
231 232 233 233 235 242 248 250 249 251 258 268 277 285 291 296 298 298 298 296 292 289 287 287 289 290 289 287 285 285 282 274 266 264 266 271 271 265 258 256 258 261